www.pogodaiklimat.ru

Погода и климат >> Архив погоды >> Южная Африка >> Форт-Бофорт


ПОГОДА в Форт-Бофорте

  • Прогноз погоды в Форт-Бофорте
  • Монитор погоды в Форт-Бофорте

АРХИВ ПОГОДЫ в Форт-Бофорте

Время (UTC), дата Ветер
(напр.,м/с)
 
Видим.   Явления Облачность Т
(С)
Тd
(С)
f
(%)
Тe
(С)
Тes
(С)
Комфортность P
(гПа)
Po
(гПа)
Тmin
(С)
Tmax
(С)
R
(мм)
R24
(мм)
S
(см)
18 18.05 ЮВ 3 н/о н/о +15.9 +12.3 79 +16 +16 963.8 +15.9 +29.2
21 18.05 штиль 0 н/о н/о +13.6 +11.5 87 +13 +13 963.6 +13.6 +29.2
00 19.05 З 2 н/о н/о +11.7 +10.1 90 +11 +11 962.6 +11.7 +29.2
03 19.05 З 1 н/о н/о +9.7 +8.4 92 +9 +9 961.4 +9.6 +29.2
06 19.05 Ю 1 н/о н/о +11.1 +9.8 92 +11 +11 961.7 +8.9
09 19.05 СЗ 3 н/о н/о +30.3 +5.2 20 +28 +28 жарко 961.5 +8.9 +30.3
12 19.05 СЗ 10 н/о н/о +32.5 +2.9 15 +30 +30 жарко 958.9 +8.9 +33.2
15 19.05 С 4 н/о н/о +30.5 +3.8 18 +28 +28 жарко 958.7 +30.4 +33.2
18 19.05 С 6 н/о н/о +28.9 +4.0 20 +27 +27 жарко 959.2 +28.9 +33.2
21 19.05 СЗ 5 н/о н/о +27.5 +4.8 23 +26 +26 жарко 959.1 +27.3 +33.2
00 20.05 С 4 н/о н/о +26.5 +4.5 24 +25 +25 комфорт 958.7 +26.5 +33.2
03 20.05 СЗ 4 н/о н/о +24.7 +4.1 26 +24 +24 комфорт 958.6 +24.4 +33.2
06 20.05 СЗ 5 н/о н/о +24.9 +3.2 24 +24 +24 комфорт 958.7 +22.0
09 20.05 СЗ 9 н/о н/о +29.6 +1.4 16 +27 +27 жарко 957.9 +22.0 +29.6
12 20.05 СЗ 10 н/о н/о +31.9 +1.4 14 +29 +29 жарко 956.4 +22.0 +31.9
15 20.05 Ю 3 н/о н/о +22.2 +4.9 32 +22 +22 комфорт 961.0 +22.2 +32.1
18 20.05 Ю 4 н/о н/о +14.1 +9.9 76 +13 +13 965.8 +14.1 +32.1
21 20.05 ЮВ 2 н/о н/о +12.6 +6.4 66 +12 +12 967.9 +12.6 +32.1
00 21.05 СВ 1 н/о н/о +11.8 +7.3 74 +12 +12 969.1 +11.6 +32.1
03 21.05 Ю 2 н/о н/о +10.9 +7.0 77 +10 +10 969.2 +10.9 +32.1
06 21.05 З 2 н/о н/о +10.6 +3.2 60 +9 +9 971.1 +8.7
09 21.05 ЮЗ 5 н/о н/о +15.8 +1.6 38 +15 +15 971.0 +8.7 +16.4
12 21.05 ЮЗ 3 н/о н/о +18.8 -2.6 23 +19 +19 969.0 +8.7 +18.9
15 21.05 Ю 2 н/о н/о +17.6 -0.0 30 +18 +18 968.5 +17.6 +19.8
18 21.05 С 2 н/о н/о +10.5 +1.6 54 +9 +9 969.7 +10.5 +19.8
21 21.05 З 2 н/о н/о +7.6 +0.8 62 +6 +6 970.1 +7.6 +19.8
00 22.05 З 2 н/о н/о +6.1 +0.4 67 +4 +4 968.9 +6.0 +19.8
03 22.05 З 3 н/о н/о +4.7 +0.2 73 +2 +2 968.4 +4.5 +19.8
06 22.05 СЗ 2 н/о н/о +5.8 +1.1 72 +4 +4 968.4 +3.8
09 22.05 С 1 н/о н/о +16.9 +2.6 38 +18 +18 968.3 +3.8 +16.9
12 22.05 Ю 2 н/о н/о +22.5 +1.7 25 +22 +22 комфорт 965.9 +3.8 +22.6
15 22.05 ЮВ 3 н/о н/о +20.3 +0.8 27 +21 +21 комфорт 965.3 +20.3 +23.3
18 22.05 СЗ 2 н/о н/о +11.7 +2.4 53 +11 +11 966.7 +11.7 +23.3
21 22.05 З 2 н/о н/о +8.8 +1.7 61 +7 +7 967.6 +8.8 +23.3
00 23.05 З 2 н/о н/о +6.4 +1.1 69 +5 +5 968.2 +6.4 +23.3
03 23.05 З 2 н/о н/о +5.0 +0.7 74 +3 +3 969.0 +4.8 +23.3
06 23.05 З 1 н/о н/о +6.6 +1.7 71 +6 +6 970.8 +3.7
09 23.05 ЮВ 1 н/о н/о +16.4 +5.7 49 +17 +17 971.3 +3.7 +16.7
12 23.05 Ю 3 н/о н/о +20.0 +4.6 36 +21 +21 комфорт 970.0 +3.7 +20.1
15 23.05 Ю 3 н/о н/о +18.4 +5.0 41 +19 +19 970.1 +18.4 +21.1
18 23.05 Ю 2 н/о н/о +13.1 +7.1 67 +12 +12 971.5 +12.8 +21.1
21 23.05 З 2 н/о н/о +8.4 +4.6 77 +7 +7 972.1 +8.4 +21.1
00 24.05 З 2 н/о н/о +7.1 +3.9 80 +5 +5 971.5 +7.0 +21.1
03 24.05 СЗ 2 н/о н/о +5.3 +3.3 87 +3 +3 971.5 +5.0 +21.1
06 24.05 СЗ 2 н/о н/о +5.9 +3.4 84 +3 +3 972.5 +4.4
09 24.05 В 1 н/о н/о +17.8 +7.3 50 +19 +19 972.6 +4.4 +17.8
12 24.05 ЮВ 3 н/о н/о +23.1 +5.7 32 +23 +23 комфорт 970.6 +4.4 +23.1
15 24.05 Ю 2 н/о н/о +20.7 +7.1 41 +22 +22 комфорт 970.3 +20.7 +23.4
18 24.05 Ю 2 н/о н/о +14.3 +8.0 66 +14 +14 971.6 +14.3 +23.4
21 24.05 СЗ 2 н/о н/о +10.4 +5.8 73 +9 +9 972.0 +10.4 +23.4
00 25.05 СЗ 2 н/о н/о +8.3 +4.7 78 +6 +6 971.4 +8.3 +23.4
03 25.05 СЗ 2 н/о н/о +7.8 +4.5 80 +6 +6 970.3 +7.6 +23.4
06 25.05 штиль 0 н/о н/о +8.2 +4.7 79 +7 +7 971.0 +6.4
09 25.05 СВ 1 н/о н/о +19.9 +6.7 42 +22 +22 комфорт 970.6 +6.4 +19.9
12 25.05 Ю 2 н/о н/о +26.5 +5.7 26 +26 +26 жарко 967.8 +6.4 +26.7
15 25.05 Ю 3 н/о н/о +23.8 +8.0 36 +24 +24 комфорт 967.8 +23.8 +27.3

 

Местоположение метеостанции Форт-Бофорт (Южная Африка): широта -32.78 долгота 26.63 высота над уровнем моря 455 м.

В архиве по умолчанию представлена погода в Форт-Бофорте за последнюю неделю. Архивные данные за месяц целиком и за предыдущие месяцы, начиная с января 2011 года, Вы можете получить, выбрав интересующий диапазон дат из раскрывающегося списка и нажав кнопку "Ввод!".


*Определитесь, кто Вы:
робот инопланетянин человек

Внимание! Время в таблицах - всемирное. Для получения местного времени необходимо прибавить поправку, которая равна 2 ч.

Смотрите также архив погоды в соседних городах и на ближайших метеорологических станциях:

Погода в Грейамстауне (Южная Африка) (57 км)
Погода в Аэропорту Бишо (Южная Африка) (62 км)
Погода в Стуттерхейме (Южная Африка) (84 км)
Погода в Порт-Альфред (Южная Африка) (90 км)
Погода в Куинстаун аэропорту (Южная Африка) (100 км)
Погода в Куинстауне (Южная Африка) (100 км)
Погода в Парке Addo Elephant (Южная Африка) (110 км)
Погода в Ист-Лондоне (Южная Африка) (115 км)
Погода в Сомерсет-Ист (Южная Африка) (117 км)
Погода в Крадоке (Южная Африка) (117 км)

Пояснения к столбцам:

Ветер - указаны скорость ветра в м/с - средняя за 10 мин, порывы в срок и между сроками (в фигурных скобках) и направление, откуда дует ветер: С - северный, СВ - северо-восточный, В - восточный, ЮВ - юго-восточный, Ю - южный, ЮЗ - юго-западный, З - западный, СЗ - северо-западный.
Видимость - горизонтальная дальность видимости в метрах или километрах. При видимости от 1 до 10 км при отсутствии осадков обычно наблюдается дымка, при ухудшении видимости до 1 км и менее - туман. В сухую погоду видимость может ухудшаться дымом, пылью или мглою.
Явления - указаны атмосферные явления, наблюдавшиеся в срок или в последний час перед сроком; фигурными скобками обозначены явления, наблюдавшиеся между сроками (за 1-3 часа до срока); квадратными скобками обозначены град или гололедные отложения с указанием их диаметра в мм.
Облачность - указаны через наклонную черту общая и нижняя облачность в баллах и высота нижней границы облаков в метрах; квадратными скобками обозначены формы облаков: Ci - перистые, Cs - перисто-слоистые, Cc - перисто-кучевые, Ac - высококучевые, As - высокослоистые, Sc - слоисто-кучевые, Ns - слоисто-дождевые, Cu - кучевые, Cb - кучево-дождевые. Подробнее классификацию облаков см. в Атласе облаков (PDF).
T - Температура воздуха - температура, измеренная на высоте 2 м над землей.
Td - Температура точки росы - температура, при понижении до которой содержащийся в воздухе водяной пар достигнет насыщения.
f - Относительная влажность воздуха - влажноcть воздуха, измеренная на высоте 2 м над землей.
Te - Эффективная температура - температура, которую ощущает одетый по сезону человек в тени. Характеристика душности погоды. При расчете учитывается влияние влажности воздуха и скорости ветра на теплоощущения человека.
Tes - Эффективная температура на солнце - температура, которую ощущает человек, с поправкой на солнечный нагрев. Характеристика знойности погоды. Зависит от высоты солнца над горизонтом, облачности и скорости ветра. Ночью, в пасмурную погоду, а также при ветре 12 м/с и более поправка равна нулю.
P - Атмосферное давление - приведенное к уровню моря атмосферное давление.
Po - Атмосферное давление - измеренное на уровне метеостанции атмосферное давление.
Tmin - Минимальная температура - минимум температуры воздуха на высоте 2 м над землей.
Tmax - Максимальная температура - максимум температуры воздуха на высоте 2 м над землей.
R - Количество осадков - Количество выпавших осадков за период времени, мм. При наведении курсора мыши на число - период времени, за который выпало указанное количество осадков.
R24 - Количество осадков - Количество выпавших осадков за 24 часа, мм.
S - Снежный покров - Высота снежного покрова, см. При наведении курсора мыши на число - состояние снежного покрова и степень покрытия местности в баллах.